Location: Newark
(45.9167°N, 5.5000°E)
Time: 22:08:30
(UTC+00:00)

Envisat - Visible Passes

Search period start: 27 January 2020 00:00
Search period end: 06 February 2020 00:00
Orbit: 764 x 766 km, 98.1° (Epoch: 27 January)

Date Brightness Start Highest point End Pass type
(mag) Time Alt. Az. Time Alt. Az. Time Alt. Az.
27 Jan 6.2 05:01:11 10° NE 05:03:57 15° E 05:06:43 10° ESE visible
27 Jan 4.2 17:55:38 10° S 18:00:30 46° W 18:05:24 10° NNW visible
28 Jan 4.0 06:01:47 10° NNE 06:06:45 51° E 06:11:41 10° S visible
28 Jan 3.0 17:18:35 10° SSE 17:23:39 85° ENE 17:28:46 10° NNW visible
28 Jan 6.2 19:01:05 10° WSW 19:03:21 13° W 19:05:37 10° WNW visible
29 Jan 5.5 05:25:36 10° NE 05:29:44 25° E 05:33:51 10° SSE visible
29 Jan 5.2 18:21:52 10° SSW 18:26:09 27° W 18:30:29 10° NW visible
30 Jan 6.4 04:50:55 10° ENE 04:52:31 11° E 04:54:06 10° ESE visible
30 Jan 3.1 06:27:09 10° NNE 06:32:17 87° ESE 06:37:22 10° SSW visible
30 Jan 3.7 17:44:11 10° S 17:49:10 57° W 17:54:12 10° NNW visible
31 Jan 4.5 05:50:36 10° NNE 05:55:25 41° E 06:00:11 10° SSE visible
31 Jan 3.0 17:07:21 10° SSE 17:12:23 69° ENE 17:17:27 10° N visible
31 Jan 6.0 18:48:46 10° SW 18:51:55 16° W 18:55:03 10° NW visible
01 Feb 5.8 05:14:39 10° NE 05:18:20 20° E 05:22:00 10° SE visible
01 Feb 4.8 18:10:12 10° SSW 18:14:47 34° W 18:19:24 10° NNW visible
02 Feb 3.4 06:15:53 10° NNE 06:20:59 70° ESE 06:26:03 10° S visible
02 Feb 3.3 17:32:47 10° S 17:37:51 72° WSW 17:42:57 10° NNW visible
03 Feb 4.9 05:39:27 10° NNE 05:44:03 33° E 05:48:36 10° SSE visible
03 Feb 5.7 18:36:46 10° SW 18:40:30 20° W 18:44:14 10° NW visible
04 Feb 6.1 05:03:50 10° NE 05:06:54 16° E 05:09:57 10° SE visible
04 Feb 4.4 17:58:37 10° SSW 18:03:25 42° W 18:08:16 10° NNW visible
05 Feb 3.9 06:04:38 10° NNE 06:09:40 56° E 06:14:38 10° S visible
05 Feb 3.1 17:21:28 10° SSE 17:26:33 89° WSW 17:31:40 10° NNW visible
05 Feb 6.4 19:04:31 10° WSW 19:06:18 12° W 19:08:06 10° WNW visible
